Location: Axtheid
(49.6213°N, 11.8205°E)
Time: 13:08:00
(UTC+00:00)

Cosmos 1626 Rocket - Pass Details

Date: 24 January 2021
Orbit: 603 x 631 km, 82.5° (Epoch: 25 February)

Event Time Altitude Azimuth Distance (km) Brightness Sun altitude
Rises 17:15:18 0° 176° (S) 2,875 7.1 -12.9°
Reaches altitude 10° 17:17:32 10° 172° (S) 1,979 6.2 -13.2°
Maximum altitude 17:21:48 55° 95° (E) 751 3.6 -13.9°
Drops below altitude 10° 17:26:10 10° 18° (NNE) 2,012 5.9 -14.6°
Sets 17:28:27 0° 14° (NNE) 2,927 6.8 -14.9°
Enters shadow 17:28:32 - 14° (NNE) 2,962 6.8 -14.9°
